[Date Prev][Date Next][Thread Prev][Thread Next] - [Date Index][Thread Index][Author Index]

2 Line ISS Keps 7-24



ISS
1 25544U 98067A   04206.33677086  .00073739  00000-0  59667-3 0  2901
2 25544  51.6319 136.2113 0006622  36.9876  55.0752 15.70105897324151
----
Via the sarex mailing list at AMSAT.ORG courtesy of AMSAT-NA.
To unsubscribe, send "unsubscribe sarex" to Majordomo@amsat.org



AMSAT Top AMSAT Home